Showing default

GEESAT 6-03, 65715

Orbit data source: Space-Track

GEESAT 6-03, 65715 is a payload satellite owned by GeeSpace (CN) in LEO that was launched on Wed, 24 Sep 2025 UTC via a JIELONG-3 launch vehicle from the Yellow Sea Launch Area, China (YSLA). Payload-class satellites include a variety of spacecraft equipped with specific instruments for various scientific and technological missions. These include communications satellites like Starlink; space stations such as the ISS; scientific satellites like the Hubble; Earth observation satellites from companies like Planet Labs, Umbra, and HawkEye 360; GPS; miniature CubeSats for education and research; and military/defense satellites.

Loading next visibility...
Identifier
65715, 2025-214D
Orbit
LEO
Country
Flag of CNCN / PRC
Related business
Manufacturer
GWCG
Mission
Operational Commercial Navigation
Bus & Motor
GPS100, Unknown motor
Mass
130 kg wet, 130 kg dry
Launch date (UTC)
2025-09-24 (9 months ago)
Launch vehicle
JIELONG-3
Launch site
Yellow Sea Launch Area, China (YSLA)
Object type
Payload
Rocket body
Debris
Shape & HBR
Box + 2 Pan, 1.1 m
Radar Cross Section
0.833 m², Large (>1 m²)

Expand to show TLE details & history
Last TLE update: 13 hours ago

TLE from 13 hours ago
0 GEESAT 6-03
1 65715U 25214D   26171.31859905  .00001240  00000-0  17689-3 0  9996
2 65715  49.9837 293.5520 0013379 234.2526 125.7169 14.83387789 39976
Epoch: 2026-06-20T07:38Z
TLE epoch observation values (Epoch: 2026-06-20T07:38:46.957Z)
Latitude
0.00002°
Longitude
-89.67858°
Altitude
624.666 km
Speed
7.545 km/s
True Right ascension
19h 34m 12s
True Declination
0° 00' 00"
Sunlit
Object was in full shadow at epoch
Visualization orbit readout
Latitude
Unknown
Longitude
Unknown
Altitude
Unknown
Speed
Unknown
Apparent Right ascension
Unknown
Apparent Declination
Unknown
Sunlit
N/A
Visualization observer readout
Local Sidereal Time
07:13:22
Azimuth
Unknown
Elevation
Unknown
Doppler factor
Unknown
Orbital elements
Apogee altitude
628.774 km
Perigee altitude
610.05 km
Semi-major axis
6,997.549 km
Eccentricity
0.00134
Inclination
49.9837°
RAAN
293.552°
Arg. of periapsis
234.2526°
True anomaly
125.84125°
Mean anomaly
125.7169°
Eccentric anomaly
125.77909°
Mean motion
3.70787 °/min
Orbital period
97.09 mins
BSTAR
0.00017689
Loading maneuver chart data...
Computing Atmospheric mass density...
Loading historical data...
Loading historical data...
Loading historical data...
Loading historical data...
Loading historical data...
Loading historical data...
Loading historical data...

Documentation

Showing up to 5 results
|